RH
100 100 100 100 100 100 100 100 100 100 100 98 90 92 88 87 81 99 100 97 71 78 100 100 100 100 100 100 96 100 82 61 60 68 60 70 59 80 68 61 56 68 57
100 100 100 100 100 100 100 100 100 100 100 99 90 100 98 86 82 88 63 52 57 74 93 90 100 100 100 100 100 100 100 97 84 84 74 75 80 66 68 67 63 70 58
100 100 100 100 100 100 100 100 100 100 100 100 96 98 80 81 68 71 76 68 69 73 77 93 94 100 100 91 98 100 100 98 100 82 75 91 81 68 75 82 75 58 61
93 100 100 100 100 100 100 100 100 100 100 100 100 100 91 95 69 63 74 77 96 79 98 94 83 99 100 100 98 100 100 92 99 100 91 95 78 68 63 60 71 72 66
100 100 100 100 99 80 99 99 100 100 100 100 100 92 89 68 74 86 56 53 84 75 80 91 98 100 93 88 93 96 92 78 80 80 86 75 68 65 70 80 86 93 80
100 100 100 100 100 93 73 85 100 100 100 100 99 93 75 72 70 84 73 65 91 100 83 70 100 100 84 78 100 100 100 100 82 96 65 60 84 78 97 72 91 100 88
100 100 100 100 100 100 100 100 100 100 100 100 96 76 60 74 95 97 98 99 98 98 94 78 97 96 91 75 100 83 84 75 54 70 72 72 85 90 100 100 100 98 100
91 100 100 100 100 100 100 100 100 100 96 100 98 100 100 100 72 63 65 72 83 79 99 100 100 100 94 95 100 100 84 84 82 90 100 87 68 84 86 100 100 98 98
75 94 100 100 100 100 100 100 100 100 100 100 100 98 100 100 100 100 100 100 96 83 85 100 100 100 100 100 100 100 83 78 98 99 93 84 80 85 97 98 99 82 79
58 72 93 99 100 100 100 100 100 99 100 100 100 100 100 100 100 100 100 100 100 100 100 100 100 100 100 100 100 94 100 100 91 94 92 90 92 100 91 100 100 78 92
36 46 69 95 98 100 100 100 98 100 97 90 88 98 100 100 100 100 100 100 100 100 100 100 100 87 88 100 100 100 100 100 100 99 72 88 100 77 100 97 82 100 100
27 37 42 49 64 78 76 73 77 94 100 96 75 80 70 79 87 90 100 99 100 100 100 100 100 100 92 100 100 100 100 90 80 79 80 100 82 100 64 100 100 100 100
19 22 28 40 42 39 38 42 54 55 64 85 86 77 62 77 74 54 67 73 78 96 100 100 100 100 100 98 100 75 100 100 100 99 100 96 100 100 100 100 100 100 93
18 18 20 21 26 35 39 36 35 40 44 45 44 40 37 37 35 33 28 28 31 41 58 74 98 100 100 100 98 87 100 100 100 100 99 100 100 100 100 100 98 100 94
23 20 19 19 21 22 24 32 39 41 37 34 33 30 27 27 25 22 24 27 26 17 15 20 51 100 100 100 100 100 100 100 95 100 100 96 91 100 100 99 100 100 97
24 23 21 21 20 19 20 20 23 29 35 41 44 39 38 38 44 43 41 44 34 20 32 57 56 83 100 100 100 100 100 92 100 100 100 100 100 100 100 100 96 95 100
24 22 21 20 20 19 18 18 18 20 24 27 30 32 41 48 48 46 46 42 48 45 78 100 100 99 100 100 100 100 93 100 100 100 100 100 100 100 100 100 100 100 98
25 23 21 21 22 21 20 19 18 18 18 20 21 21 24 28 33 40 48 50 56 56 64 90 100 100 100 100 100 100 100 100 100 100 100 100 100 100 100 100 100 96 72
26 24 23 23 23 23 22 21 19 17 17 18 20 19 22 25 28 39 50 54 58 64 80 80 88 91 96 100 100 100 100 100 100 100 100 100 100 99 92 79 66 63 48
25 25 24 24 23 23 21 20 18 17 16 16 17 20 21 25 25 28 47 63 61 70 74 77 84 84 79 83 92 98 93 92 92 94 95 99 88 79 74 51 41 38 39
25 26 26 24 24 23 22 20 19 18 17 17 16 17 18 20 25 33 35 47 63 82 84 86 86 94 100 100 96 91 87 81 74 71 63 53 46 41 36 41 52 56 70
22 23 24 24 24 24 23 22 22 20 18 17 17 17 18 19 25 28 27 28 37 57 66 78 89 93 92 88 87 88 85 72 59 49 43 41 42 46 49 55 63 72 78
22 24 24 24 23 23 23 23 22 21 20 19 18 18 18 18 18 21 23 23 23 24 36 49 60 71 73 73 70 66 62 59 58 57 58 59 60 59 60 69 73 72 67
22 23 24 24 24 24 24 24 23 22 21 20 20 20 19 18 18 19 19 20 20 20 20 21 26 40 53 60 62 61 60 60 60 58 58 58 57 60 60 57 52 46 31
21 22 22 22 23 23 22 22 22 21 21 20 20 19 19 18 18 18 18 18 18 18 17 17 18 18 18 17 16 16 16 17 18 18 20 24 25 23 19 16 16 15 16
23 23 22 22 22 22 22 21 21 20 19 19 19 18 17 16 16 16 16 15 15 15 15 14 14 14 14 14 14 13 13 13 13 13 14 14 14 15 15 16 16 16 14
Wind_Speed
99 96 94 91 93 89 87 77 74 74 66 68 71 72 71 71 72 71 69 66 64 63 61 60 61 62 60 56 57 56 52 50 50 50 50 52 56 55 55 57 56 59 60
108 101 104 106 100 92 88 80 80 79 76 73 73 73 70 70 71 71 68 66 64 67 65 63 64 67 66 63 64 60 58 55 55 53 56 58 59 59 61 62 62 62 63
112 109 109 107 103 97 92 85 83 83 85 86 83 80 76 73 75 75 72 69 67 65 70 71 69 69 72 71 68 65 63 60 59 59 61 62 63 62 61 65 68 68 66
107 104 104 110 101 94 93 92 88 87 91 94 89 88 83 80 79 76 75 73 71 70 68 73 74 72 75 77 73 69 67 63 63 62 65 67 67 65 65 69 70 73 72
112 112 111 104 103 102 98 100 98 93 94 92 90 95 91 87 86 80 78 77 75 74 69 74 77 77 78 77 69 69 71 69 69 68 70 67 68 68 71 71 70 71 76
110 113 117 106 103 102 104 107 105 99 96 96 96 91 94 89 89 87 82 81 79 80 81 78 81 77 79 80 72 73 71 71 71 70 69 70 71 74 71 73 74 77 80
109 107 107 118 114 108 110 108 103 99 99 93 99 92 92 93 95 94 87 87 86 83 84 84 85 83 81 84 79 77 74 72 75 73 69 71 73 78 74 78 79 79 82
119 124 115 133 126 120 113 108 110 108 102 99 99 99 91 95 98 98 95 94 89 88 92 88 91 84 86 86 86 84 83 80 77 75 74 80 84 84 85 85 84 83 85
113 112 121 126 128 130 118 120 119 118 114 112 108 105 107 101 99 96 89 88 83 89 90 90 94 97 90 92 92 95 85 85 83 85 87 87 88 90 91 94 95 94 91
118 116 120 125 125 126 121 120 124 123 121 117 118 113 109 108 107 99 100 96 98 98 101 100 101 101 101 101 103 99 96 93 97 97 94 95 96 96 97 101 99 98 91
114 121 125 129 130 130 123 118 123 121 124 127 121 121 119 120 118 115 111 108 109 103 106 111 116 106 108 111 105 105 102 105 105 105 106 104 102 104 106 107 99 91 100
110 117 120 125 128 129 124 123 126 121 117 124 130 127 130 127 128 123 126 124 124 115 115 113 117 114 119 121 117 110 116 118 114 108 109 106 109 109 110 98 92 102 109
101 106 115 120 125 126 124 122 117 113 118 126 129 120 113 128 130 133 132 132 130 134 124 124 119 118 119 119 116 117 120 111 110 112 112 110 110 104 107 108 109 114 120
94 98 103 108 115 120 123 122 121 118 114 112 114 111 109 108 110 116 118 119 124 138 148 146 139 139 129 134 131 118 106 111 114 117 116 108 113 116 115 114 118 117 120
88 92 97 101 103 107 113 117 116 118 120 120 118 116 115 112 112 107 106 104 104 109 117 130 141 142 137 141 137 129 123 125 127 124 120 119 123 116 124 121 119 122 124
89 91 92 94 98 101 103 104 109 111 114 115 113 112 110 109 105 102 99 95 88 86 93 102 117 133 145 140 140 131 132 133 130 130 128 129 125 130 125 124 127 131 131
88 89 90 91 92 93 95 97 100 101 102 106 109 109 110 111 109 105 101 93 82 75 82 95 103 117 131 138 143 147 140 138 137 142 133 126 131 133 130 132 134 138 131
88 89 91 92 92 93 93 93 94 94 95 96 96 97 100 105 108 107 101 93 87 77 72 83 94 100 114 129 140 146 142 144 140 136 134 141 140 139 136 134 132 133 132
87 88 89 90 91 92 93 95 94 93 92 92 95 95 94 94 95 98 99 95 88 83 75 76 77 87 95 104 123 136 141 143 143 140 138 144 143 137 136 135 138 136 120
83 85 86 88 88 89 91 93 94 93 92 91 92 92 92 94 94 95 98 97 93 89 85 81 79 80 82 87 96 106 115 121 126 131 134 131 126 132 142 126 112 110 111
80 82 84 86 87 88 88 89 90 91 91 91 90 90 91 94 95 94 94 96 97 96 93 91 89 88 87 88 88 90 92 95 98 100 103 107 109 108 109 109 109 112 115
76 78 81 83 85 85 85 85 86 86 87 87 88 90 90 91 95 96 97 98 100 103 102 100 99 98 98 98 98 99 100 101 102 104 106 108 109 110 112 114 116 118 122
76 78 80 82 83 84 84 85 85 85 86 87 89 90 91 90 93 96 98 98 98 101 105 107 107 107 108 108 108 108 109 110 111 113 114 114 116 118 120 122 124 126 128
76 77 79 80 81 82 84 85 86 86 86 86 87 88 90 91 92 93 97 100 102 102 102 104 107 111 114 115 116 117 119 120 120 120 120 121 121 124 126 128 129 129 127
77 77 78 78 80 81 82 83 84 85 86 86 87 87 88 89 90 92 94 97 99 100 101 103 105 106 108 110 111 112 112 112 112 113 115 117 118 119 119 118 119 121 121
79 80 81 82 82 83 83 83 84 84 85 86 87 87 87 88 89 90 92 94 95 96 99 101 103 105 106 107 106 106 106 107 107 107 108 110 111 113 114 114 113 112 111
Wind_Direction
222 223 220 219 224 231 233 236 237 234 231 232 232 234 233 234 237 240 243 248 250 246 244 245 250 256 256 260 261 265 268 269 271 274 274 275 282 285 289 290 300 301 302
218 221 221 226 231 237 235 231 235 232 231 234 237 234 236 239 241 244 248 252 253 251 244 243 247 255 256 262 261 260 263 268 272 272 274 279 283 292 291 294 299 299 301
225 228 232 233 234 234 229 229 232 232 237 242 240 237 238 242 245 248 251 256 260 262 249 247 247 251 258 259 259 258 259 263 268 273 273 276 282 288 288 290 294 297 299
226 228 231 229 229 228 231 231 232 236 240 243 243 241 243 245 246 250 252 256 258 259 255 254 250 252 256 258 256 258 259 261 265 269 273 275 283 287 286 291 292 297 299
224 229 230 227 228 230 230 231 234 240 240 242 243 242 246 248 246 247 250 252 256 256 258 255 253 255 258 258 255 260 261 262 263 266 269 276 280 283 285 289 292 296 295
224 227 228 229 231 229 229 235 236 238 240 242 245 244 245 247 248 247 247 250 253 258 260 260 253 252 256 254 252 259 259 261 265 269 273 277 280 285 285 292 294 293 296
222 226 227 228 230 231 235 234 236 237 242 243 249 252 250 248 249 247 251 252 254 258 258 257 255 255 255 255 255 259 260 262 265 268 272 276 279 283 286 290 295 292 293
225 227 228 227 229 232 231 232 234 237 237 240 239 246 249 249 252 255 255 254 255 259 258 258 255 254 254 253 254 258 261 262 265 270 273 278 284 285 287 292 292 292 295
225 225 228 229 231 233 234 235 236 236 237 238 242 241 243 247 253 250 253 251 254 251 251 254 256 257 252 254 253 256 260 265 269 271 275 281 284 286 287 289 293 295 296
223 226 227 229 229 230 233 236 238 237 238 241 240 241 241 244 245 247 249 245 248 253 250 251 257 258 257 254 255 261 264 264 269 274 277 281 283 285 287 289 290 291 294
224 226 227 227 229 231 234 237 239 240 240 242 242 243 246 248 251 247 248 250 254 252 250 254 255 258 257 254 257 260 263 269 271 273 277 278 279 285 285 286 289 288 290
225 226 228 229 230 231 233 237 238 239 241 244 246 246 246 249 248 249 252 252 254 252 253 251 253 259 259 255 255 260 264 269 270 272 275 274 280 280 286 285 283 287 290
228 230 230 230 232 234 236 237 239 240 241 243 245 249 249 250 247 248 250 252 254 253 253 255 253 253 252 257 254 262 264 265 266 269 272 275 277 279 282 282 280 286 289
231 231 232 233 234 235 236 237 239 241 242 242 243 246 250 251 250 252 254 254 255 254 253 253 251 251 250 256 259 259 259 265 269 269 274 270 279 279 279 280 281 285 287
233 233 233 235 236 238 239 239 240 240 241 243 244 247 249 250 252 253 254 257 259 258 253 249 244 246 246 251 254 255 255 262 265 267 272 273 277 277 279 283 283 286 289
234 234 234 236 237 239 241 243 243 245 245 244 246 247 249 250 252 255 259 262 267 267 257 250 247 245 243 244 248 252 255 263 263 265 270 271 273 277 279 280 282 284 289
234 235 236 237 239 241 242 243 244 244 245 247 247 248 249 251 254 256 257 261 263 266 258 255 252 250 245 245 248 253 255 258 265 265 267 270 271 276 277 276 279 284 287
235 235 236 238 239 241 242 244 245 245 244 246 248 249 249 250 251 252 253 257 259 262 258 253 252 252 250 248 251 253 255 259 261 264 263 267 270 273 281 278 276 283 285
235 237 239 240 241 242 242 243 244 245 246 246 247 249 249 251 252 252 251 252 255 257 259 258 256 253 253 254 254 256 256 259 261 264 266 267 272 272 274 277 280 280 279
236 238 240 241 242 243 244 245 247 248 248 247 247 247 249 251 253 255 254 254 255 256 257 258 258 258 258 258 257 258 260 262 264 265 268 270 269 269 272 275 273 274 274
236 238 239 241 242 244 245 247 248 249 249 249 249 247 249 250 251 251 252 253 255 256 257 258 258 259 260 261 261 262 262 262 263 264 264 266 267 267 268 270 272 274 275
239 240 241 242 244 246 247 248 249 250 251 251 250 249 249 249 248 250 252 254 254 254 254 255 255 256 256 257 258 258 259 261 262 263 264 266 267 268 270 272 274 275 276
239 240 241 243 245 247 248 248 249 250 251 251 251 252 252 252 251 250 251 252 254 255 256 256 257 258 259 259 260 261 262 263 264 265 266 268 268 270 272 274 275 277 280
242 243 244 244 245 246 248 249 250 251 252 253 253 253 253 253 253 253 253 253 254 256 257 258 258 258 259 260 262 263 264 265 266 267 268 270 271 271 274 277 277 279 282
244 245 246 247 248 249 250 251 252 253 254 255 255 255 255 256 256 256 256 256 257 258 258 259 259 260 261 263 264 265 266 267 269 270 271 273 274 275 277 278 279 279 281
247 248 249 250 252 253 253 254 254 255 256 257 257 258 258 258 259 259 259 259 259 260 260 261 262 263 264 266 267 269 270 271 272 274 275 276 277 277 278 279 279 279 279